This is the latest recevied weather packets stored in our database for station/object W9PEM-13. If no packets are shown the sender has not sent any weather packets the latest 10 day(s).
| Time | Temp. | Humidity | Pressure | Rain* | Wind** | Luminosity | Snow |
|---|---|---|---|---|---|---|---|
| 1777807244 | 9.44° C | 58% | 979.9 hPa | 0 mm | - | 15 W/m² | - |
| 1777806643 | 9.44° C | 56% | 979.8 hPa | 0 mm | - | 6 W/m² | - |
| 1777806043 | 9.44° C | 57% | 979.9 hPa | 0 mm | - | 6 W/m² | - |
| 1777805443 | 9.44° C | 57% | 980 hPa | 0 mm | - | 3 W/m² | - |
| 1777804844 | 8.89° C | 57% | 980 hPa | 0 mm | - | 1 W/m² | - |
| 1777804243 | 8.89° C | 57% | 980.1 hPa | 0 mm | - | 0 W/m² | - |
| 1777798843 | 8.33° C | 59% | 980.5 hPa | 0 mm | - | 0 W/m² | - |
| 1777798546 | 8.33° C | 59% | 980.5 hPa | 0 mm | - | 0 W/m² | - |
| 1777798243 | 8.33° C | 59% | 980.5 hPa | 0 mm | - | 0 W/m² | - |
| 1777797643 | 8.33° C | 59% | 980.6 hPa | 0 mm | - | 0 W/m² | - |
| 1777797043 | 8.33° C | 59% | 980.8 hPa | 0 mm | - | 0 W/m² | - |
| 1777796443 | 7.78° C | 60% | 980.9 hPa | 0 mm | - | 0 W/m² | - |
| 1777795843 | 7.78° C | 61% | 981 hPa | 0 mm | - | 0 W/m² | - |
| 1777795242 | 7.78° C | 60% | 981.1 hPa | 0 mm | - | 0 W/m² | - |
| 1777794642 | 7.78° C | 61% | 981.2 hPa | 0 mm | - | 0 W/m² | - |
| 1777794042 | 8.33° C | 59% | 981.2 hPa | 0 mm | - | 0 W/m² | - |
| 1777793443 | 7.78° C | 62% | 981.2 hPa | 0 mm | - | 0 W/m² | - |
| 1777792842 | 7.78° C | 62% | 981.3 hPa | 0 mm | - | 0 W/m² | - |
| 1777792242 | 7.78° C | 61% | 981.3 hPa | 0 mm | - | 0 W/m² | - |
| 1777791642 | 7.78° C | 62% | 981.4 hPa | 0 mm | - | 0 W/m² | - |
| 1777791043 | 7.78° C | 61% | 981.6 hPa | 0 mm | - | 0 W/m² | - |
| 1777790443 | 7.22° C | 61% | 981.6 hPa | 0 mm | - | 0 W/m² | - |
| 1777789842 | 7.22° C | 61% | 981.7 hPa | 0 mm | - | 0 W/m² | - |
| 1777789242 | 7.22° C | 61% | 981.8 hPa | 0 mm | - | 0 W/m² | - |
| 1777788642 | 7.22° C | 63% | 981.9 hPa | 0 mm | - | 0 W/m² | - |
* Rain latest hour (hover to see other rain measurements)
** Current wind speed in m/s (hover to see current wind gust speed)